sat.trackr.live / text

‹ back to catalog

STARLINK-31961

NORAD 59894 · 2024-100K

PAYLOAD ACTIVE UNKNOWN

§ Identity

Operator
Country
US
Launch date
2024-05-28
Launch site
AFETR
Launch vehicle
Mass (kg)
RCS (m²)

Purposes: comms

External: N2YO · Heavens-Above · Gunter

§ Orbital elements

Epoch: 2026-05-25T02:23:30.170400Z

Period
94.27 min
Inclination
43.0042°
Eccentricity
0.0000760
Mean motion
15.27571559 rev/d
Perigee alt
482.6 km
Apogee alt
483.6 km
Semi-major
6,861.2 km
B*
5.4282e-5
RAAN
46.8825°
Arg perigee
275.0891°
Mean anomaly
84.9874°
Rev number
11,292

§ Raw data

STARLINK-319611 59894U 24100K   26145.09965475  .00001232  00000+0  54282-4 0  99972 59894  43.0042  46.8825 0000760 275.0891  84.9874 15.27571559112920

JSON: /api/v1/satellites/59894 · /tle

For live sub-satellite position, see the globe view (requires WebGL).

§ Visibility from observer

Set your observer location to see the next 7 days of passes ≥ 10°. The values pass through the URL so the page stays shareable.

No JS? Fill the form by hand. The geolocation button needs JavaScript.